Regional Weather Roundup
Issued by NWS State College, PA

Home | Current Version | Previous Version | Text Only | Print | Product List | Glossary Off
Versions: 1 2 3 4 5 6 7 8 9 10 11 12 13 14 15 16 17 18 19 20 21 22 23 24 25 26 27 28 29 30 31 32 33 34 35 36 37 38 39 40 41 42 43 44 45 46 47 48 49 50

000
ASUS41 KCTP 270003
RWRCTP

REGIONAL WEATHER ROUNDUP
NATIONAL WEATHER SERVICE STATE COLLEGE PA
800 PM EDT WED APR 26 2017

Note: "fair" indicates few or no clouds below 12,000 feet with no
significant weather and/or obstructions to visibility.

* = STATION THAT DOES NOT REPORT PRECIPITATION /E.G. RAIN...SNOW...ETC/
    THUNDER OR FOG.

PAZ002>004-007>009-013>016-020>023-029>032-270100-
WESTERN PENNSYLVANIA

CITY           SKY/WX    TMP DP  RH WIND       PRES   REMARKS
ERIE           CLEAR     75  55  49 SE8       29.63S
MEADVILLE      CLOUDY    72  55  55 CALM      29.68F
FRANKLIN*      CLOUDY    70  54  56 SE9       29.72F
NEW CASTLE     FAIR      76  57  51 SE5       29.69R
BEAVER COUNTY  CLEAR     73  55  53 SE6       29.69S
BUTLER*        CLEAR     73  55  53 SE5       29.71S
PITTSBURGH INT MOCLDY    76  57  51 SE10      29.69S
PITTSBURGH     CLEAR     74  54  49 SE6       29.70S
INDIANA*       CLEAR     72  57  60 CALM      29.75S
LATROBE          N/A     73  57  56 CALM      29.72F
WASHINGTON CO* CLEAR     73  55  53 E8        29.71F
$$

PAZ004>006-010>012-017>019-024>028-033>037-041-042-045-046-049>053-270100-
CENTRAL PENNSYLVANIA

CITY           SKY/WX    TMP DP  RH WIND       PRES   REMARKS
BRADFORD       CLEAR     71  54  54 S6        29.75S
DUBOIS         CLEAR     68  54  60 SE7       29.74S
CLEARFIELD     CLEAR     69  56  62 SE5       29.75S
JOHNSTOWN      CLEAR     67  56  67 SE9       29.77S
ALTOONA        CLEAR     67  57  70 E6        29.77R
STATE COLLEGE  CLEAR     68  55  64 S6        29.77R
WILLIAMSPORT   CLEAR     71  58  63 S7G16     29.73S
SELINSGROVE    CLEAR     65  58  78 S5        29.76S
FT INDIANTOWN  NOT AVBL
CAPITAL CITY   CLEAR     65  56  72 S5        29.78S
HARRISBURG     PTCLDY    63  58  83 S3        29.78S
YORK           CLEAR     62  58  86 SE3       29.79S
$$

PAZ038>040-043-044-047-048-054-055-060>062-067>071-270100-
EASTERN PENNSYLVANIA

CITY           SKY/WX    TMP DP  RH WIND       PRES   REMARKS
SCRANTON       MOCLDY    70  56  61 CALM      29.76R
MOUNT POCONO   CLEAR     56  55  97 SE3       29.81R
ALLENTOWN      CLEAR     65  55  70 E5        29.79R
QUAKERTOWN*    PTCLDY    63  57  82 CALM      29.80R
READING        PTCLDY    67  59  75 S3        29.78R
LANCASTER      CLEAR     64  60  87 S3        29.79R
COATESVILLE    CLEAR     63  59  88 CALM      29.82R
POTTSTOWN      CLEAR     62  56  80 CALM      29.81R
BLUE BELL      CLOUDY    61  55  82 CALM      29.81R
DOYLESTOWN     CLOUDY    61  57  87 CALM      29.79R
WILLOW GROVE   NOT AVBL
NORTH PHILA    CLOUDY    64  57  78 SE3       29.81R
PHILADELPHIA   CLOUDY    63  56  78 S3        29.80R
$$




USA.gov is the U.S. government's official web portal to all federal, state and local government web resources and services.